STARLINK-32800, 62743

Orbit data source: Space-Track

STARLINK-32800, 62743 is a payload satellite owned by SpaceX/Seattle (US) in LEO that was launched on Tue, 21 Jan 2025 UTC via an FALCON 9 launch vehicle from the Air Force Eastern Test Range (AFETR). Payload-class satellites include a variety of spacecraft equipped with specific instruments for various scientific and technological missions. These include communications satellites like Starlink; space stations such as the ISS; scientific satellites like the Hubble; Earth observation satellites from companies like Planet Labs, Umbra, and HawkEye 360; GPS; miniature CubeSats for education and research; and military/defense satellites.

Loading next visibility...
Identifier
62743, 2025-014J
Orbit
LEO
Country
Flag of USUS
Related business
Manufacturer
SpaceX/Seattle
Mission
Operational Commercial Communications
Bus & Motor
STARLINK V2M, Unknown motor
Mass
730 kg wet, ~700 kg dry
Launch date (UTC)
2025-01-21 (11 months ago)
Launch vehicle
FALCON 9
Launch site
Air Force Eastern Test Range (AFETR)
Object type
Payload
Rocket body
Debris
Shape & HBR
Box + 2 Pan, 17.7 m
Radar Cross Section
33.884 m², Large (>1 m²)

Expand to show TLE details & history
Last TLE update: 10 hours ago

TLE from 10 hours ago
0 STARLINK-32800
1 62743U 25014J   25346.86397727  .00037988  00000-0  13828-2 0  9992
2 62743  42.9998 292.0799 0001421 283.0132  77.0561 15.27581334 49895
Epoch: 2025-12-12T20:44Z
TLE epoch observation values (Epoch: 2025-12-12T20:44:07.636Z)
Latitude
Longitude
-100.7514°
Altitude
482.602 km
Speed
7.626 km/s
True Right ascension
19h 28m 19s
True Declination
0° 00' 00"
Sunlit
Object was in daylight at epoch
Visualization orbit readout
Latitude
Unknown
Longitude
Unknown
Altitude
Unknown
Speed
Unknown
Apparent Right ascension
Unknown
Apparent Declination
Unknown
Sunlit
N/A
Visualization observer readout
Local Sidereal Time
05:23:57
Azimuth
Unknown
Elevation
Unknown
Doppler factor
Unknown
Orbital elements
Apogee altitude
485.966 km
Perigee altitude
484.015 km
Semi-major axis
6,863.127 km
Eccentricity
0.00014
Inclination
42.9998°
RAAN
292.0799°
Arg. of periapsis
283.0132°
True anomaly
77.07197°
Mean anomaly
77.0561°
Eccentric anomaly
77.06404°
Mean motion
3.81733 °/min
Orbital period
94.31 mins
BSTAR
0.0013828
Loading maneuver chart data...
Computing Atmospheric mass density...
Loading historical data...
Loading historical data...
Loading historical data...
Loading historical data...
Loading historical data...
Loading historical data...
Loading historical data...

Documentation

Showing up to 5 results
|